Wed, 2019 March 20. @ 15:06 (Europe/Berlin) | Change timezone

Search

Search

Find competitions and teams quickly

Compare

Compare

Click on this h2h icon anywhere to compare teams and see statistics

Fixtures

Fixtures

View today's matches, tomorrow's fixtures, yesterday's results or fixtures on any specific date by using the calendar


Fixtures - 2018.09.25

Group by: leagues | time
Time Home Score Away 1 X 2 H2H
 Soccer Argentina Primera Division 2018/2019
01:00 Racing Club 1 : 0 Union Santa Fe 1.76 3.36 5.10
 Hockey Austria Eishockey Liga 2018/2019
19:15 Innsbruck 6 : 5 ot Salzburg 2.75 4.80 1.97
 Soccer Austria ÖFB Stiegl Cup 2018/2019
16:00 Leobendorf SV 1 : 2 SC Rheindorf Altach 11.30 7.18 1.20
18:00 Bruck/Leitha 1 : 3 Austria Lustenau 4.66 4.53 1.56
18:30 St. Andrä 4 : 0 Austria Klagenfurt 1.30 5.38 8.03
19:00 Hartberg TSV 3 : 0 Wattens 1.31 5.20 8.20
19:00 Vöcklamarkt Union 0 : 1 Ried SV 5.28 5.15 1.42
19:00 Deutschlandsberger Sport Club 3 : 4 ot FC Wiener Neustadt 3.43 3.93 1.92
19:30 Horn 0 : 2 Lafnitz 2.43 3.41 2.68
20:45 Grazer AK 1 : 0 ot(p) Steyer Vorw. 1.85 3.92 3.60
 Soccer Belgium Beker van Belgie 2018/2019
20:00 Eupen 3 : 0 Tubize AFC 1.45 4.63 5.56
20:00 Waasland 1 : 2 Mandel United 1.04 12.81 26.00
20:30 Harelbeke 0 : 1 Kortrijk 29.00 12.81 1.03
 Soccer Brazil Serie A 2018
01:00 Chapecoense AF 1 : 2 Fluminense 2.11 3.04 3.77
01:00 Vasco da Gama 2 : 1 Bahia 2.07 3.15 3.82
 Hockey CHL Kontinental Hockey League 2018/2019
16:00 Jekatěrinburg 5 : 4 ot Jaroslavl 2.03 4.15 3.03
16:00 Magnitogorsk 2 : 1 Čerepovec 1.68 4.40 4.13
18:30 Dinamo Riga 2 : 1 ot Jokerit Helsinki 3.65 4.58 1.76
18:30 CSKA Moskva 2 : 1 ot(p) Sochi 1.36 5.60 6.88
18:30 Slovan Bratislava 1 : 4 Spartak Moskva 2.97 4.17 2.05
 Soccer Croatia HR Nogometni Cup 2018/2019
15:30 Kurilovec 0 : 2 Slaven Belupo 16.50 7.75 1.11
15:30 Vukovar'91 3 : 5 ot Zadarkomerc 4.94 3.86 1.57
 Hockey Czech Republic Extraleague 2018/2019
18:30 Sparta Praha 1 : 2 ot Hradec Králové 1.85 4.47 3.28
 Soccer Czech Republic Pohár 2018/2019
16:00 Chrudim AFK 2 : 0 Mladá Boleslav 5.79 4.31 1.44
16:00 Sokolov Baník 1 : 2 Ostrava Baník 4.37 3.66 1.67
16:00 Slavičín 3 : 9 Zlín 16.88 9.78 1.06
 Basketball Denmark 1st League M 2018/2019
19:00 Stevnsgade SuperMen 62 : 111 Naestved FOG - - -
 Handball Denmark 1st League M 2018/2019
19:30 Arhus GF 31 : 26 Nordsjalland Handbold 1.53 10.31 2.99
 Soccer Denmark Landspokal 2018/2019
16:30 LSF Smorum 1 : 2 Hobro 7.01 5.42 1.30
19:00 Kolding IF 2 : 1 ot Randers Freja 13.88 5.90 1.26
 Hockey Denmark SuperBest-ligaen 2018/2019
19:00 Aalborg 2 : 1 ot Totempo Hvidovre HVIK 1.30 7.00 5.92
19:00 Sonderjylland IK 1 : 3 Fredrikshavn 2.02 4.24 2.82
19:00 Rungsted 4 : 2 Esbjerg 1.56 5.50 3.88
19:00 Rodovre Kobenhavn 2 : 1 Herning 3.47 4.83 1.71
19:00 Herlev 5 : 2 Odense 1.62 4.83 3.92
 Soccer England Carling Cup 2018/2019
20:45 Bournemouth 3 : 2 Blackburn 1.49 4.07 6.65
20:45 Oxford 0 : 3 Manchester City 34.15 12.25 1.07
20:45 Millwall 1 : 3 Fulham 3.41 3.47 2.06
20:45 Blackpool 2 : 0 Q.P.R. 2.60 3.20 2.71
20:45 Wycombe 3 : 4 Norwich 3.94 3.34 1.96
20:45 Burton 2 : 1 Burnley 4.14 3.51 1.84
20:45 Wolverhampton 0 : 1(p) Leicester 2.46 3.23 2.84
20:45 Preston 2 : 3(p) Middlesbrough 2.21 3.22 3.44
21:00 West Bromwich 0 : 3 Crystal Palace 2.85 3.26 2.44
21:00 Manchester United 2 : 3(p) Derby 1.23 6.18 11.95
 Soccer England Conference National 2018/2019
20:45 Salford City 3 : 0 Hartlepool 1.74 3.45 4.46
20:45 Eastleigh 1 : 0 Boreham Wood 2.77 3.19 2.42
20:45 Barnet 2 : 2 Havant & W 1.68 3.51 4.86
20:45 Harrogate Town 0 : 0 Wrexham 2.13 3.22 3.28
20:45 Chesterfield 1 : 3 Maidenhead United 1.79 3.41 4.28
20:45 Alderschot 0 : 1 Maidstone United 1.82 3.42 4.14
20:45 Sutton UTD 2 : 2 Dover Athletic 1.63 3.60 5.18
20:45 Halifax 0 : 0 Fylde 3.35 3.38 2.03
20:45 Braintree Town 1 : 5 Leyton 6.65 3.90 1.48
20:45 Solihull 2 : 0 Dagenham & Redbridge 1.68 3.55 4.83
20:45 Ebbsfleet United 1 : 2 Bromley 1.88 3.33 3.96
20:45 Barrow 1 : 2 Gateshead 2.49 3.15 2.76
 Soccer England FA Cup 2018/2019
20:45 Needham Market 2 : 3 ot Metropolitan Police 2.07 3.85 2.97
20:45 Brightlingsea Regent 2 : 1 Egham Town 1.47 4.22 6.08
20:45 Swindon Supermarine 0 : 1 Chippenham Town 2.97 3.92 2.03
20:45 Grantham Town 0 : 2 St Ives Town - - -
20:45 Brackley Town 2 : 0 Nuneaton Borough 1.50 3.93 6.83
20:45 Sudbury 3 : 2 ot Bognor Regis Town - - -
20:45 Didcot Town 0 : 1 ot(p) Hitchin - - -
20:45 Blyth S. 1 : 0 Nantwich Town 1.64 3.92 4.51
20:45 Warrington Town 2 : 0 Consett 1.32 5.83 6.50
20:45 Sholing 0 : 3 ot Slough 6.00 5.00 1.33
20:45 Alfreton Town 3 : 0 Sutton Coldfield Town 1.25 5.50 7.50
20:45 Coalville 4 : 1 Buxton 2.13 3.85 2.80
20:45 Bamber 0 : 5 Cleethorpes Town 1.45 4.44 5.83
20:45 Hungerford Town 1 : 1 Wantage Town - - -
20:45 Salisbury 2 : 3 ot Weston Super Mare - - -
 Soccer England LDV Trophy 2018/2019
20:30 Crewe 1 : 4 Manchester City U23 2.18 3.52 2.87
20:30 Bradford 2 : 1(p) Everton U23 2.26 3.33 2.85
20:45 Newport 3 : 0 Chelsea U23 2.47 3.37 2.55
20:45 Exeter 2 : 0 West Ham U23 1.85 3.53 3.80
 Soccer England League Two 2018/2019
20:45 Yeovil 1 : 1 Milton Keynes 2.76 3.23 2.61
 Hockey Finland SM Liiga 2018/2019
17:30 Kärpät 4 : 0 Hämeenlinna 1.54 4.92 4.72
17:30 Jukurit Mikkeli 1 : 3 TPS Turku 3.03 4.13 2.00
 Soccer France Ligue 1 2018/2019
19:00 Nantes 1 : 2 Nice 2.37 3.15 3.18
19:00 Monaco 0 : 1 Angers 1.62 4.09 5.70
21:00 Toulouse 2 : 3 St. Etienne 2.36 3.20 3.17
 Basketball France Pro A M 2018/2019
20:00 Le Mans 83 : 77 Cholet Basket 1.10 26.00 7.60
20:00 Chalons-Reims 81 : 80 Fos-sur-Mer 1.35 17.00 3.55
20:00 Villeurbanne Asvel Lyon 91 : 60 Antibes 1.07 28.00 9.00
20:00 Limoges CSP 95 : 99 Gravelines Dunkerque 1.35 17.00 3.55
20:30 Paris-Levallois 68 : 81 Elan Chalon 1.44 16.00 3.10
20:30 Dijon Bourgogne 83 : 66 Boulazac 1.24 19.00 4.60
 Soccer Germany 2. Liga 2018/2019
18:30 Darmstatd 98 1 : 2 Bielefeld 2.24 3.27 3.22
18:30 Berlin Union 2 : 0 Holstein Kiel 1.92 3.48 3.93
18:30 Bochum 0 : 1 Dresden 2.16 3.40 3.30
18:30 Köln 2 : 1 Ingolstadt 1.49 4.35 6.04
 Soccer Germany 3. Liga 2018/2019
19:00 W 2 : 1 Meppen 1.50 4.11 6.05
19:00 Braunschweig 1 : 4 Kaiserslautern 2.35 3.12 3.03
19:00 Wehen SV 2 : 0 Sonnenhof Grossaspach SG 1.59 3.80 5.48
19:00 Lotte Sportfreunde 2 : 0 Jena 2.15 3.33 3.23
19:00 Rostock 1 : 4 Münster 1.94 3.38 3.83
 Soccer Germany Bundesliga 2018/2019
18:30 Werder Bremen 3 : 1 Hertha Berlin 2.01 3.52 3.65
20:30 Hannover 96 1 : 3 Hoffenheim 3.07 3.68 2.21
20:30 Freiburg 1 : 0 Schalke 04 3.22 3.29 2.28
20:30 Bayern München 1 : 1 Augsburg FC 1.11 9.63 21.20
 Soccer Greece Cup 2018/2019
15:30 OF Ierapetra 0 : 2 Kissamikos 5.75 3.90 1.55
15:30 Volos NFC 5 : 1 Apollon Larissas 1.26 5.00 9.25
15:30 Apollon Paralimniou 1 : 1 Trikala 6.50 3.80 1.50
18:00 Asteras Tripolis 2 : 1 Apollon Smirnis 1.19 5.50 14.33
20:30 Atromitos Athinon FC 1 : 2 Yiannina 1.73 3.37 4.50
 Soccer Hungary NB II 2018/2019
19:00 Békéscsaba 1 : 0 Győri ETO FC 2.20 3.31 2.87
 Soccer Italy Serie A 2018/2019
21:00 Inter Milan 2 : 1 Fiorentina 1.65 3.73 5.70
 Soccer Italy Serie B 2018/2019
21:00 Pescara 2 : 1 Crotone 2.51 3.03 2.99
21:00 Cittadella 0 : 1 Benevento 2.71 3.13 2.70
21:00 Perugia 0 : 1 Carpi 1.90 3.22 4.47
21:00 Brescia 2 : 1 Palermo 2.80 3.02 2.69
21:00 Livorno 0 : 3 Lecce 2.55 2.99 2.96
21:00 Salernitana 1 : 1 Ascoli 2.05 3.06 4.06
21:00 Helas Verona 2 : 1 Spezia 1.95 3.19 4.28
 Soccer Netherlands KNVB Beker 2018/2019
17:00 AFC '34 5 : 0 Telstar 4.11 3.85 1.75
18:30 Waalwijk RKC 2 : 0 NAC Breda 3.27 3.39 2.05
19:45 Volendam 1 : 2 Willem Tilburg 6.80 4.29 1.42
19:45 Helmond 0 : 5 Sittard Fortuna 4.51 4.14 1.59
19:45 DVS '33 Ermelo 0 : 6 Roda Kerkade 19.13 10.11 1.06
19:45 Spakenburg 3 : 0 DFS 1.17 6.79 10.88
19:45 ODIN '59 1 : 0 Lisse 2.25 3.58 2.66
19:45 Koninklijke HFC 4 : 0 Harkemase Boys 1.60 4.07 4.39
19:45 Den Bosch 1 : 2 Heracles 4.25 4.02 1.65
19:45 Rijnsburgse Boys 1 : 2 ot(p) Top Oss 4.58 4.28 1.55
19:45 Omniworld 1 : 0 Dordrecht 1.43 4.48 5.93
19:45 Scheveningen 2 : 3 ot Cambuur Leeuwarden 6.58 4.54 1.38
19:45 Noordwijk 3 : 2 Sparta Rotterdam 8.60 5.69 1.24
19:45 Westlandia 0 : 3 Venlo VVV 25.25 11.31 1.04
19:45 Deventer 2 : 0 EW Eindhoven 1.54 3.98 5.06
19:45 VVSB Sint Bavo 3 : 4 ot(p) Graafschap 6.86 5.15 1.31
20:00 Kozakken Boys 3 : 1 Sneek 1.27 5.56 7.73
20:45 Excelsior 2 : 3 ot NEC Nijmegen 2.01 3.74 3.08
 Soccer Norway Adeccoligaen 2018
19:00 Mjondalen IF 2 : 0 Aalesund 2.17 3.26 3.19
 Hockey Norway Eliteserien 2018/2019
18:30 Sapsborg Sparta 0 : 4 Frisk/Asker 2.20 4.33 2.55
19:00 Stavanger 3 : 4 Valerenga Oslo 2.00 4.41 2.87
 Handball Poland 1.liga M 2018/2019
18:30 Kielce Vive KS 48 : 29 Pogon Szczecin 1.02 38.25 22.00
 Hockey Poland Ekstraliga 2018/2019
18:00 Unia Osvětim 4 : 2 Zagłębie Sosnowiec 1.32 5.83 5.67
18:00 Bytom 2 : 3 Stoczniowiec Gdaňsk 2.15 4.62 2.38
18:00 Jastrzebie JKH GKS 3 : 2 ot Tychy 3.83 4.83 1.57
18:30 Katowice 4 : 5 Kraków 1.67 4.62 3.50
18:30 Orlik Opole 2 : 4 Toruň 2.31 4.62 2.22
 Soccer Poland Puchar Polski 2018/2019
15:00 Lódz LKS 0 : 1 ot Lech Poznan 9.50 4.31 1.32
15:00 Slask Swietochlowice 0 : 3 Arka Gdynia 34.75 12.00 1.03
15:30 Gryf Wejherowo 1 : 3 Stomil Olsztyn 2.38 3.36 2.63
15:30 Siarka Tarnobrzeg 1 : 4 Plock 5.36 3.94 1.52
16:00 Polonia G 0 : 8 Chrobry G 8.94 5.20 1.26
17:30 Chojniczanka Chojnice 0 : 1 Legia Warszawa 5.50 4.01 1.50
18:30 Pogo 2 : 1 Stal Mielec 3.83 3.38 1.85
19:20 Ruch Chorzów 1 : 5 Odra Opole 2.68 3.17 2.45
20:30 Wisla Kraków 1 : 2 ot(p) Lechia Gdaňsk 2.13 3.24 3.18
 Soccer Romania Cupa Romaniei 2018/2019
15:00 Voluntari FC 2 : 1 Botosani 2.63 3.13 2.50
15:30 Csikszereda 2 : 1 Energeticianul 3.17 3.50 2.00
17:45 Damila Maciuca 0 : 2 U Craiova 1948 9.88 5.07 1.25
18:00 ASU Poli Timisoara 1 : 2 ot(p) Sepsi Sfantu Gheorghe 3.82 3.31 1.87
20:30 Dacia Unirea Braila 1 : 3 Dinamo Bucureşti 14.88 7.11 1.12
 Soccer Russia Cup 2018/2019
12:00 Dinamo Barnaul 0 : 2 Gazovik Orenburg 8.50 4.14 1.36
17:00 Neftekhimik Nizhnekamsk 2 : 3 Ural Sverdlovskaya Oblast 5.18 3.39 1.65
 Soccer Scotland League Cup 2018/2019
20:45 Hibernian 0 : 1 ot(p) Aberdeen FC 2.29 3.21 2.91
 Hockey Slovakia Extraliga 2018/2019
17:30 Banská Bystrica 2 : 0 Budapest MAC 1.21 8.00 7.92
18:00 Zvolen 6 : 1 Slovensko 20 1.08 12.75 15.75
 Soccer Slovakia Super Liga 2018/2019
18:00 Nitra 2 : 1 Trenčín 3.03 3.37 2.12
 Handball Slovenia 1.liga M 2018/2019
20:00 Adria Krka 26 : 28 Trimo Trebnje 1.33 10.58 3.77
 Soccer Spain La Liga 2018/2019
20:00 Espaňol Barcelona 1 : 0 Eibar 1.90 3.33 4.48
21:00 Real Sociedad 2 : 2 Vallecano Madrid 1.58 4.11 5.76
22:00 Atletico Madrid 3 : 0 Huesca 1.22 6.31 13.90
 Soccer Sweden Allsvenskan 2018
19:00 Örebro SK 0 : 0 Sirius 1.93 3.50 3.83
 Hockey Sweden Allsvenskan 2018/2019
19:00 AIK Stockholm 4 : 2 Modo 1.97 4.17 3.02
 Handball Sweden Elitserien M 2018/2019
19:00 Ystads IF 31 : 25 Karlskrona IFK 1.05 22.00 13.25
 Soccer Sweden Superettan 2018
19:00 Halmstad BK 2 : 1 Landskrona 1.62 3.86 4.86
 Soccer Switzerland Challenge League 2018/2019
20:00 Aarau FC 3 : 1 Schaffhausen FC 2.56 3.57 2.49
20:00 Servette FC 1 : 1 Kriens 1.59 4.02 5.03
20:00 Chiasso 0 : 1 Rapperswil-Jona 3.21 3.51 2.07
 Hockey Switzerland Nationalliga A 2018/2019
19:45 Davos 2 : 0 Rapperswill 1.53 5.40 4.41
19:45 SC Curych 1 : 4 Langnau 1.62 4.92 4.08
19:45 Bern 4 : 0 Lugano 1.80 4.56 3.37
19:45 Lausanne 4 : 2 Servette GE 1.93 4.72 2.97
19:45 Ambri Piota 1 : 5 Biel Bienne EHC 2.82 4.47 2.03
19:45 Fribourg 3 : 6 Zug 2.68 4.50 2.12
 Hockey Switzerland Nationalliga B 2018/2019
19:45 Academy Zug EVZ 2 : 4 Ticino Rockets 1.50 5.23 4.17
 Soccer Switzerland Super League 2018/2019
20:00 Grasshoppers Zürich 0 : 2 Thun 2.51 3.38 2.70
 Soccer Turkey Türkiye Kupasi 2018/2019
12:00 Erzincanspor 2 : 1 Gaziantepspor BB 4.61 3.75 1.65
13:00 Erzin Belediyespor 1 : 4 Umraniyespor 7.06 4.10 1.46
13:30 Yeni Altindag BS 3 : 0 Vestel Manisaspor 1.41 4.38 6.88
13:30 Diyarbakespor 1 : 0 Samsunspor 3.39 3.28 2.02
14:00 Pendikspor 2 : 1 Altinordu SK Izmir 2.89 3.13 2.39
14:00 Kirklarelispor 4 : 1 Usakspor 2.38 3.25 2.80
14:00 Boz 0 : 1 Denizlispor 8.14 4.96 1.30
14:00 Nazillispor 5 : 0 Tokatspor 2.65 3.16 2.57
14:00 Manisa BBSK 1 : 2 Keciörengücü 2.26 3.17 3.08
14:00 Maltepespor Istanbul 1 : 2 Menemen Belediye 5.55 3.80 1.54
15:30 Tire 1922 0 : 1 Sivas 4 Eyl 2.76 3.24 2.47
17:30 Erzurumspor 1 : 0 Ankara Demirspor 1.23 6.08 11.06
19:30 Demirspor 2 : 1 Orduspor 1.35 4.73 7.19
 Soccer Ucraine Cup 2018/2019
17:30 Sumy 0 : 3 Karpaty Lvov 17.75 9.70 1.06

Sport statistics

  • soccer, basketball, handball and icehockey statistics from more than 150 leagues (results, tables, fixtures, other usefull statistics, bookies odds etc.)
  • other useful things: comparision of teams and leagues, streaks, selections, predictions, head-to-head
  • the statistics are updated three times each day
  • RSS feeds for the upcoming matches from each sport, just click on the RSS feed in the URL field of your browser
  • archived competitions, most of them from 2003

For a detailed description of all functions and their usage check our Help page.